Regional Weather Roundup
Issued by NWS

Home | Current Version | Previous Version | Text Only | Print | Product List | Glossary Off
Versions: 1 2 3 4 5 6 7 8 9 10 11 12 13 14 15 16 17 18 19 20 21 22 23 24 25 26 27 28 29 30 31 32 33 34 35 36 37 38 39 40 41 42 43 44 45 46 47 48 49 50

000
ASUS43 KLSX 031457
RWRMO

WEATHER ROUNDUP FOR MISSOURI
NATIONAL WEATHER SERVICE ST LOUIS MO
1000 AM CDT MON AUG 03 2015

NOTE: "FAIR" INDICATES FEW OR NO CLOUDS BELOW 12,000 FEET WITH NO
       SIGNIFICANT WEATHER AND/OR OBSTRUCTIONS TO VISIBILITY.
       CURRENT SKY AND/OR WEATHER CONDITIONS ARE NOT AVAILABLE FOR
       CHILLICOTHE AND FARMINGTON.

MOZ001>031-035>038-043-044-053-054-031600-
...NORTHERN AND WESTERN MISSOURI...

CITY           SKY/WX    TMP DP  RH WIND       PRES   REMARKS
KANSAS CTY INT PTSUNNY   80  68  66 S7        29.95S
LEE`S SUMMIT   SUNNY     80  68  66 S5        29.96F
ST JOSEPH      LGT RAIN  73  68  84 CALM      29.95R
CHILLICOTHE      N/A     78  63  59 NE7       29.96F

$$
MOZ066>068-077>081-088>096-101>105-031600-
...SOUTHWEST MISSOURI...

CITY           SKY/WX    TMP DP  RH WIND       PRES   REMARKS
SPRINGFIELD    SUNNY     84  67  56 VRB3      29.99R
JOPLIN         SUNNY     86  67  52 SW10      29.97S

$$
MOZ032>034-039>042-045>050-055>058-069>072-031600-
...CENTRAL MISSOURI...

CITY           SKY/WX    TMP DP  RH WIND       PRES   REMARKS
COLUMBIA       NOT AVBL
JEFFERSON CITY CLOUDY    80  67  64 W7        29.92F
ROLLA          PTSUNNY   79  68  69 W12       29.95S
SEDALIA        PTSUNNY   81  66  60 VRB3      29.95F

$$
MOZ051-052-059>065-031600-
...EAST CENTRAL MISSOURI...

CITY           SKY/WX    TMP DP  RH WIND       PRES   REMARKS
ST LOUIS INTL  MOSUNNY   88  62  41 NW5       29.90S

$$
MOZ072>076-082>087-097>100-106>115-031600-
...SOUTH CENTRAL AND SOUTHEAST MISSOURI...

CITY           SKY/WX    TMP DP  RH WIND       PRES   REMARKS
CAPE GIRARDEAU SUNNY     84  73  69 SW5       29.92S HX  90
POPLAR BLUFF   SUNNY     86  69  56 W6        29.93R HX  90
$$


USA.gov is the U.S. government's official web portal to all federal, state and local government web resources and services.